• In Germany
  • List of Countries
  • For 7 days
  • Water Temperature
  • Satellite Maps
  • Weather Map
  • Weather Widgets
  • user-avatar
    Login

    Hourly Weather Orange Walk

    Today, 20 November, Monday

    Time Temperature Precipitation Wind Pressure Humidity
    00:00 +22°C° 0.1 mm 1 mps 759 mmHg 96%
    01:00 +22°C° 0.1 mm 1 mps 759 mmHg 97%
    02:00 +22°C° 0.1 mm 1 mps 759 mmHg 98%
    03:00 +21°C° 0.1 mm 2 mps 759 mmHg 98%
    04:00 +20°C° 0.2 mm 2 mps 759 mmHg 98%
    05:00 +20°C° 0.2 mm 2 mps 759 mmHg 98%
    06:00 +20°C° 0.2 mm 2 mps 760 mmHg 99%
    07:00 +23°C° 0.2 mm 2 mps 760 mmHg 93%
    08:00 +24°C° 0.2 mm 2 mps 760 mmHg 87%
    09:00 +26°C° 0.2 mm 2 mps 761 mmHg 82%
    10:00 +27°C° 0.1 mm 2 mps 760 mmHg 74%
    11:00 +29°C° 0.1 mm 2 mps 760 mmHg 66%
    12:00 +30°C° 0.1 mm 2 mps 759 mmHg 58%
    13:00 +30°C° 0 mm 2 mps 759 mmHg 56%
    14:00 +31°C° 0 mm 2 mps 758 mmHg 55%
    15:00 +31°C° 0 mm 2 mps 757 mmHg 53%
    16:00 +29°C° 0 mm 1 mps 757 mmHg 60%
    17:00 +27°C° 0 mm 1 mps 757 mmHg 67%
    18:00 +25°C° 0 mm 1 mps 758 mmHg 74%
    19:00 +24°C° 0.2 mm 1 mps 758 mmHg 78%
    20:00 +24°C° 0.2 mm 1 mps 758 mmHg 82%
    21:00 +23°C° 0.2 mm 1 mps 759 mmHg 86%
    22:00 +23°C° 0.1 mm 1 mps 759 mmHg 88%
    23:00 +23°C° 0.1 mm 1 mps 759 mmHg 90%

    Tomorrow, 21 November, Tuesday

    Time Temperature Precipitation Wind Pressure Humidity
    00:00 +22°C° 0.1 mm 1 mps 759 mmHg 92%
    01:00 +22°C° 0 mm 1 mps 758 mmHg 93%
    02:00 +22°C° 0 mm 1 mps 758 mmHg 95%
    03:00 +21°C° 0 mm 1 mps 758 mmHg 96%
    04:00 +21°C° 0 mm 1 mps 758 mmHg 96%
    05:00 +21°C° 0 mm 1 mps 758 mmHg 96%
    06:00 +21°C° 0 mm 1 mps 758 mmHg 96%
    07:00 +23°C° 0 mm 1 mps 758 mmHg 87%
    08:00 +26°C° 0 mm 1 mps 759 mmHg 77%
    09:00 +28°C° 0 mm 1 mps 759 mmHg 68%
    10:00 +28°C° 0 mm 0 mps 759 mmHg 62%
    11:00 +29°C° 0 mm 0 mps 758 mmHg 56%
    12:00 +31°C° 0 mm 0 mps 758 mmHg 50%
    13:00 +30°C° 0 mm 0 mps 757 mmHg 53%
    14:00 +31°C° 0 mm 1 mps 756 mmHg 56%
    15:00 +30°C° 0 mm 1 mps 756 mmHg 59%
    16:00 +29°C° 0.1 mm 1 mps 756 mmHg 67%
    17:00 +27°C° 0.1 mm 1 mps 756 mmHg 75%
    18:00 +25°C° 0.1 mm 1 mps 756 mmHg 83%
    19:00 +25°C° 0 mm 1 mps 757 mmHg 85%
    20:00 +24°C° 0 mm 1 mps 757 mmHg 87%
    21:00 +24°C° 0 mm 1 mps 758 mmHg 89%
    22:00 +21°C° 0 mm 0 mps 758 mmHg 90%
    23:00 +21°C° 0 mm 0 mps 758 mmHg 92%

    Day after tomorrow, 22 November, Wednesday

    Time Temperature Precipitation Wind Pressure Humidity
    00:00 +21°C° 0 mm 0 mps 758 mmHg 93%
    01:00 +22°C° 0 mm 1 mps 757 mmHg 95%
    02:00 +22°C° 0 mm 1 mps 757 mmHg 96%
    03:00 +22°C° 0 mm 1 mps 757 mmHg 97%
    04:00 +22°C° 0 mm 1 mps 757 mmHg 97%
    05:00 +22°C° 0 mm 1 mps 757 mmHg 97%
    06:00 +21°C° 0 mm 1 mps 758 mmHg 98%
    07:00 +24°C° 0 mm 1 mps 758 mmHg 88%
    08:00 +26°C° 0 mm 1 mps 759 mmHg 79%
    09:00 +28°C° 0 mm 1 mps 759 mmHg 70%
    10:00 +30°C° 0.1 mm 1 mps 759 mmHg 64%
    11:00 +29°C° 0.1 mm 0 mps 758 mmHg 58%
    12:00 +31°C° 0.1 mm 0 mps 758 mmHg 52%
    13:00 +32°C° 0.6 mm 1 mps 757 mmHg 61%
    14:00 +30°C° 0.6 mm 1 mps 757 mmHg 70%
    15:00 +29°C° 0.6 mm 1 mps 756 mmHg 79%
    16:00 +27°C° 0.8 mm 1 mps 757 mmHg 84%
    17:00 +25°C° 0.8 mm 1 mps 757 mmHg 89%
    18:00 +23°C° 0.8 mm 1 mps 758 mmHg 95%
    19:00 +23°C° 0.4 mm 1 mps 758 mmHg 95%
    20:00 +22°C° 0.4 mm 1 mps 759 mmHg 96%
    21:00 +22°C° 0.4 mm 1 mps 759 mmHg 97%
    22:00 +22°C° 0 mm 1 mps 759 mmHg 98%
    23:00 +21°C° 0 mm 1 mps 759 mmHg 98%

    23 November, Thursday

    Time Temperature Precipitation Wind Pressure Humidity
    00:00 +21°C° 0 mm 1 mps 759 mmHg 98%
    01:00 +21°C° 0 mm 1 mps 759 mmHg 98%
    02:00 +20°C° 0 mm 2 mps 758 mmHg 99%
    03:00 +19°C° 0 mm 2 mps 758 mmHg 99%
    04:00 +19°C° 0 mm 2 mps 758 mmHg 99%
    05:00 +19°C° 0 mm 2 mps 758 mmHg 99%
    06:00 +19°C° 0 mm 2 mps 759 mmHg 99%
    07:00 +21°C° 0 mm 2 mps 759 mmHg 94%
    08:00 +23°C° 0 mm 2 mps 760 mmHg 90%
    09:00 +24°C° 0 mm 3 mps 760 mmHg 85%
    10:00 +26°C° 0 mm 3 mps 760 mmHg 77%
    11:00 +27°C° 0 mm 3 mps 759 mmHg 68%
    12:00 +29°C° 0 mm 3 mps 758 mmHg 60%
    13:00 +29°C° 0 mm 2 mps 758 mmHg 58%
    14:00 +29°C° 0 mm 2 mps 757 mmHg 57%
    15:00 +30°C° 0 mm 2 mps 756 mmHg 56%
    16:00 +28°C° 0.1 mm 2 mps 757 mmHg 65%
    17:00 +26°C° 0.1 mm 2 mps 757 mmHg 75%
    18:00 +24°C° 0.1 mm 2 mps 757 mmHg 84%
    19:00 +23°C° 0 mm 2 mps 758 mmHg 86%
    20:00 +23°C° 0 mm 2 mps 759 mmHg 88%
    21:00 +21°C° 0 mm 3 mps 759 mmHg 89%
    22:00 +21°C° 0 mm 3 mps 759 mmHg 91%
    23:00 +20°C° 0 mm 2 mps 759 mmHg 92%

    24 November, Friday

    Time Temperature Precipitation Wind Pressure Humidity
    00:00 +20°C° 0 mm 2 mps 759 mmHg 93%
    01:00 +19°C° 0 mm 2 mps 759 mmHg 94%
    02:00 +19°C° 0 mm 2 mps 759 mmHg 95%
    03:00 +18°C° 0 mm 2 mps 759 mmHg 96%
    04:00 +18°C° 0 mm 2 mps 759 mmHg 96%
    05:00 +18°C° 0 mm 2 mps 759 mmHg 96%
    06:00 +18°C° 0 mm 2 mps 760 mmHg 97%
    07:00 +20°C° 0 mm 2 mps 760 mmHg 88%
    08:00 +23°C° 0 mm 2 mps 761 mmHg 79%
    09:00 +24°C° 0 mm 3 mps 761 mmHg 70%
    10:00 +26°C° 0 mm 3 mps 760 mmHg 65%
    11:00 +27°C° 0 mm 3 mps 760 mmHg 60%
    12:00 +28°C° 0 mm 3 mps 759 mmHg 56%
    13:00 +28°C° 0 mm 3 mps 759 mmHg 56%
    14:00 +28°C° 0 mm 2 mps 758 mmHg 56%
    15:00 +28°C° 0 mm 2 mps 758 mmHg 56%
    16:00 +26°C° 0 mm 2 mps 758 mmHg 63%
    17:00 +24°C° 0 mm 2 mps 759 mmHg 69%
    18:00 +23°C° 0 mm 1 mps 759 mmHg 76%
    19:00 +22°C° 0 mm 1 mps 759 mmHg 78%
    20:00 +21°C° 0 mm 1 mps 760 mmHg 80%
    21:00 +20°C° 0 mm 1 mps 760 mmHg 81%
    22:00 +20°C° 0 mm 1 mps 760 mmHg 84%
    23:00 +18°C° 0 mm 2 mps 760 mmHg 86%

    25 November, Saturday

    Time Temperature Precipitation Wind Pressure Humidity
    00:00 +18°C° 0 mm 2 mps 760 mmHg 88%
    01:00 +17°C° 0 mm 2 mps 760 mmHg 89%
    02:00 +18°C° 0 mm 1 mps 760 mmHg 90%
    03:00 +16°C° 0 mm 1 mps 760 mmHg 91%
    04:00 +16°C° 0 mm 1 mps 760 mmHg 92%
    05:00 +16°C° 0 mm 1 mps 760 mmHg 92%
    06:00 +16°C° 0 mm 1 mps 761 mmHg 93%
    07:00 +19°C° 0 mm 1 mps 761 mmHg 84%
    08:00 +21°C° 0 mm 1 mps 761 mmHg 74%
    09:00 +24°C° 0 mm 1 mps 762 mmHg 64%
    10:00 +25°C° 0 mm 2 mps 761 mmHg 59%
    11:00 +27°C° 0 mm 2 mps 761 mmHg 55%
    12:00 +28°C° 0 mm 2 mps 760 mmHg 50%
    13:00 +29°C° 0 mm 2 mps 760 mmHg 49%
    14:00 +29°C° 0 mm 2 mps 759 mmHg 48%
    15:00 +29°C° 0 mm 1 mps 759 mmHg 47%
    16:00 +27°C° 0 mm 1 mps 759 mmHg 55%
    17:00 +25°C° 0 mm 1 mps 759 mmHg 63%
    18:00 +23°C° 0 mm 1 mps 760 mmHg 71%
    19:00 +22°C° 0 mm 1 mps 760 mmHg 74%
    20:00 +22°C° 0 mm 1 mps 761 mmHg 77%
    21:00 +21°C° 0 mm 1 mps 761 mmHg 80%
    22:00 +20°C° 0 mm 1 mps 761 mmHg 82%
    23:00 +20°C° 0 mm 1 mps 761 mmHg 85%
    Show more